Location: Newark
(12.4436°N, 0.6167°W)
Time: 04:30:34
(UTC+00:00)

Vanguard 1 - Pass Details

Date: 18 December 2019
Orbit: 651 x 3832 km, 34.2° (Epoch: 17 January)

Event Time Altitude Azimuth Distance (km) Brightness Sun altitude
Rises 20:32:16 0° 184° (S) 4,315 13.6 -39.9°
Reaches altitude 10° 20:36:49 10° 160° (SSE) 3,892 13.1 -40.9°
Enters shadow 20:37:53 12° 154° (SSE) 3,879 13.0 -41.1°
Maximum altitude 20:42:06 15° 129° (SE) 4,138 - -42.1°
Drops below altitude 10° 20:48:52 10° 101° (E) 5,246 - -43.7°
Sets 20:57:10 0° 82° (E) 7,010 - -45.6°
